[[{"header":{"parameterUnit":"m.s-1","parameterCategory":1,"la1":30.2991,"la2":30.254,"lo1":-89.0895,"lo2":-89.0444,"dy":0.0017,"dx":0.0017,"nx":28,"ny":28,"refTime":"2024-12-05T03:00:00:Z","depth":0,"parameterNumber":2,"parameterNumberName":"U-component_of_WINDS"},"data":[0,0,0,0,0,0,0,0,0,0,0,0,0,0,0,0,0,0,0,0,0,0,0,0,0,0,0,0,0,0,0,0,0,0,0,0,0,0,0,0,0,0,0,0,0,0,0,0,0,0,0,0,0,0,0,0,0,0,-0.4707,-0.4708,0,-0.4764,-0.4765,-0.4766,-0.4745,-0.4744,-0.4743,-0.4742,-0.4803,-0.4806,-0.4809,0,0,0,0,0,0,0,0,0,0,0,0,0,-0.4582,-0.4584,-0.4707,-0.4708,-0.4708,-0.4764,-0.4765,-0.4766,-0.4746,-0.4744,-0.4743,-0.4741,-0.4802,-0.4805,-0.4809,0,0,0,0,0,0,0,0,0,0,0,0,0,-0.4637,-0.4585,-0.4707,-0.4705,-0.4705,-0.4764,-0.4765,-0.4766,-0.4746,-0.4744,-0.4742,-0.474,-0.4801,-0.4805,-0.4809,-0.4874,0,0,-0.4822,-0.4824,0,0,0,0,0,0,0,0,-0.4634,-0.4642,-0.4705,-0.4705,-0.4706,-0.4746,-0.4743,-0.4802,-0.4746,-0.4731,-0.4742,-0.4739,-0.4786,-0.4791,-0.4806,-0.4877,-0.4879,-0.4823,-0.4825,-0.4827,-0.4828,0,0,0,0,0,0,0,-0.463,-0.4639,-0.473,-0.4705,-0.4706,-0.4702,-0.4708,-0.4754,-0.4768,-0.4732,-0.4731,-0.4737,-0.4786,-0.4802,-0.4807,-0.488,-0.4822,-0.4826,-0.4829,-0.483,-0.5007,-0.5009,0,0,0,0,0,0,-0.4626,-0.4636,-0.4728,-0.4731,-0.4664,-0.4706,-0.4712,-0.4735,-0.4768,-0.4771,-0.4739,-0.4736,-0.4796,-0.4802,-0.4809,-0.4888,-0.4827,-0.4831,-0.4833,-0.5004,-0.5007,-0.5009,0,0,0,0,0,0,-0.4623,-0.4634,-0.4726,-0.4683,-0.4695,-0.471,-0.4736,-0.4737,-0.4753,-0.4773,-0.4776,-0.4753,-0.4794,-0.4803,-0.4858,-0.489,-0.4833,-0.4837,-0.5002,-0.5005,-0.5008,-0.5044,0,0,0,0,0,0,-0.462,-0.4633,-0.4658,-0.4684,-0.4697,-0.4773,-0.4737,-0.474,-0.476,-0.4757,-0.4787,-0.479,-0.4794,-0.4852,-0.4862,-0.4894,-0.484,-0.4999,-0.5003,-0.5007,-0.5041,-0.5048,-0.5055,0,0,0,0,0,-0.4615,-0.4666,-0.4659,-0.467,-0.4728,-0.4775,-0.4782,-0.4784,-0.4763,-0.4788,-0.4801,-0.4789,-0.4884,-0.4857,-0.4869,-0.4903,-0.4997,-0.5002,-0.5007,-0.5037,-0.5047,-0.5055,0,0,0,0,0,0,-0.4645,-0.467,-0.4662,-0.4723,-0.4747,-0.4771,-0.4803,-0.4795,-0.4825,-0.4821,-0.4823,-0.483,-0.4886,-0.49,-0.487,-0.4967,-0.4937,-0.4945,-0.4957,-0.4966,-0.4973,-0.497,-0.4844,0,0,0,0,0,-0.4658,-0.4693,-0.4713,-0.4765,-0.4777,-0.4788,-0.4808,-0.4808,-0.4833,-0.4843,-0.4859,-0.4885,-0.492,-0.4943,-0.4977,-0.5041,-0.5048,-0.5071,-0.5078,-0.5084,-0.5091,-0.5126,-0.5137,-0.5025,-0.5025,-0.5025,0,0,-0.4687,-0.4705,-0.4727,-0.4772,-0.479,-0.4827,-0.4797,-0.4837,-0.4865,-0.4849,-0.4902,-0.4914,-0.4943,-0.5002,-0.5029,-0.5015,-0.5123,-0.509,-0.5095,-0.5098,-0.5132,-0.5143,-0.5152,-0.5028,-0.5028,-0.5027,0,0,-0.4758,-0.4775,-0.482,-0.4838,-0.4865,-0.4872,-0.4883,-0.4908,-0.4916,-0.4968,-0.4957,-0.499,-0.505,-0.5071,-0.5089,-0.5166,-0.5157,-0.5177,-0.5217,-0.5251,-0.526,-0.5268,-0.5296,-0.5306,-0.5183,-0.5184,-0.5184,0,-0.479,-0.4845,-0.4844,-0.4886,-0.4906,-0.4892,-0.4938,-0.4956,-0.4993,-0.5008,-0.4991,-0.5066,-0.5084,-0.5149,-0.5167,-0.5182,-0.5195,-0.5175,-0.5258,-0.5266,-0.5274,-0.5301,-0.5311,-0.5186,-0.5186,-0.5185,-0.5185,0,-0.4884,-0.4922,-0.4955,-0.4991,-0.5014,-0.5058,-0.5064,-0.5088,-0.5085,-0.5093,-0.5146,-0.5167,-0.5204,-0.5219,-0.5217,-0.5283,-0.5273,-0.5257,-0.5228,-0.5287,-0.5312,-0.5323,-0.5189,-0.5188,-0.5188,-0.5187,0,0,-0.4978,-0.5011,-0.5023,-0.5039,-0.5067,-0.5097,-0.5139,-0.5175,-0.5196,-0.5221,-0.5258,-0.5309,-0.5294,-0.5314,-0.5314,-0.5344,-0.5405,-0.5324,-0.5325,-0.534,-0.548,-0.5493,-0.5505,-0.5398,-0.54,-0.5401,-0.5478,0,-0.5052,-0.5126,-0.5126,-0.5195,-0.5231,-0.5217,-0.5254,-0.5275,-0.5284,-0.5315,-0.5325,-0.5361,-0.5338,-0.535,-0.5379,-0.5391,-0.5433,-0.5385,-0.5433,-0.5434,-0.5428,-0.5518,-0.5532,-0.5604,-0.5488,-0.5489,-0.5491,0,-0.515,-0.5177,-0.525,-0.5272,-0.5287,-0.532,-0.5353,-0.5383,-0.5407,-0.5411,-0.5433,-0.5428,-0.5471,-0.5439,-0.5499,-0.5467,-0.5486,-0.5494,-0.5497,-0.5503,-0.5467,-0.5528,-0.5627,-0.5638,-0.5506,-0.5505,-0.5504,0,-0.5212,-0.5268,-0.5318,-0.5332,-0.5359,-0.5383,-0.5395,-0.5417,-0.5439,-0.5467,-0.548,-0.5513,-0.5532,-0.5558,-0.5562,-0.5538,-0.5623,-0.5591,-0.5628,-0.5628,-0.5649,-0.5648,-0.5753,-0.5658,-0.5658,-0.5658,-0.5657,0,-0.5297,-0.5342,-0.5346,-0.5378,-0.5428,-0.5426,-0.5476,-0.5487,-0.5506,-0.5539,-0.5529,-0.5561,-0.5563,-0.5595,-0.5598,-0.5648,-0.5656,-0.5661,-0.5662,-0.5664,-0.5663,-0.5678,-0.5673,-0.5661,-0.566,-0.5659,-0.5659,0,-0.5376,-0.5381,-0.5435,-0.5456,-0.5462,-0.5498,-0.5516,-0.5546,-0.5552,-0.5594,-0.5604,-0.5615,-0.5652,-0.5658,-0.5702,-0.5704,-0.5765,-0.5759,-0.5757,-0.5757,-0.5794,-0.5791,-0.5914,-0.5931,-0.5823,-0.5824,-0.5825,0,-0.5431,-0.5465,-0.5489,-0.551,-0.5523,-0.5557,-0.5579,-0.5578,-0.5601,-0.563,-0.5657,-0.5693,-0.5722,-0.5783,-0.5795,-0.5828,-0.5825,-0.5865,-0.583,-0.583,-0.5827,-0.5826,-0.5829,-0.5873,-0.5874,-0.5875,-0.5876,0,-0.5527,-0.5527,-0.5558,-0.5589,-0.5614,-0.5639,-0.5663,-0.5681,-0.5683,-0.5709,-0.5747,-0.5769,-0.5814,-0.585,-0.5883,-0.5896,-0.5887,-0.5886,-0.5897,-0.59,-0.5898,-0.5901,-0.5777,-0.5884,-0.5883,-0.5883,-0.5882,-0.5882,-0.5597,-0.5626,-0.5648,-0.5682,-0.5699,-0.5721,-0.575,-0.5759,-0.579,-0.5826,-0.5824,-0.5866,-0.5888,-0.5931,-0.5946,-0.5979,-0.5966,-0.5982,-0.5986,-0.599,-0.5994,-0.589,-0.5985,-0.5985,-0.5985,-0.5985,-0.5984,0,-0.5694,-0.5706,-0.5738,-0.577,-0.5797,-0.5784,-0.5809,-0.5832,-0.5869,-0.589,-0.5918,-0.5962,-0.5996,-0.601,-0.6044,-0.6068,-0.6065,-0.6077,-0.6077,-0.608,-0.6004,-0.5992,-0.608,-0.608,-0.608,-0.608,-0.6079,-0.6079,-0.5748,-0.5797,-0.58,-0.5858,-0.587,-0.591,-0.5926,-0.5946,-0.5963,-0.6011,-0.604,-0.6048,-0.6066,-0.6101,-0.6133,-0.6136,-0.615,-0.6164,-0.6166,-0.6095,-0.6085,-0.6076,-0.6065,-0.6167,-0.6167,-0.624,-0.624,-0.6241]},{"header":{"parameterUnit":"m.s-1","parameterCategory":1,"la1":30.2991,"la2":30.254,"lo1":-89.0895,"lo2":-89.0444,"dy":0.0017,"dx":0.0017,"nx":28,"ny":28,"refTime":"2024-12-05T03:00:00:Z","depth":0,"parameterNumber":3,"parameterNumberName":"V-component_of_WINDS"},"data":[0,0,0,0,0,0,0,0,0,0,0,0,0,0,0,0,0,0,0,0,0,0,0,0,0,0,0,0,0,0,0,0,0,0,0,0,0,0,0,0,0,0,0,0,0,0,0,0,0,0,0,0,0,0,0,0,0,0,-6.2483,-6.2485,0,-6.26,-6.2601,-6.2602,-6.2516,-6.2512,-6.2508,-6.2504,-6.2619,-6.2625,-6.2632,0,0,0,0,0,0,0,0,0,0,0,0,0,-6.2182,-6.2188,-6.2483,-6.2485,-6.2486,-6.26,-6.2601,-6.2603,-6.2516,-6.2512,-6.2507,-6.2503,-6.2617,-6.2625,-6.2632,0,0,0,0,0,0,0,0,0,0,0,0,0,-6.2307,-6.2189,-6.2483,-6.2457,-6.2456,-6.2599,-6.2601,-6.2603,-6.2517,-6.2512,-6.2506,-6.2501,-6.2614,-6.2624,-6.2634,-6.2808,0,0,-6.2664,-6.2668,0,0,0,0,0,0,0,0,-6.23,-6.2318,-6.2459,-6.2459,-6.2458,-6.2537,-6.2537,-6.2672,-6.2519,-6.2494,-6.2504,-6.2498,-6.2596,-6.2607,-6.2641,-6.2813,-6.2818,-6.2665,-6.2671,-6.2675,-6.2678,0,0,0,0,0,0,0,-6.2291,-6.2312,-6.2529,-6.2461,-6.2461,-6.2438,-6.2449,-6.2562,-6.2575,-6.2495,-6.2489,-6.2505,-6.2595,-6.2632,-6.2643,-6.282,-6.2664,-6.2673,-6.2679,-6.2683,-6.3142,-6.3148,0,0,0,0,0,0,-6.2286,-6.2306,-6.2525,-6.2533,-6.2363,-6.2448,-6.2461,-6.2518,-6.2574,-6.2577,-6.2509,-6.25,-6.2618,-6.2632,-6.2647,-6.2856,-6.2675,-6.2684,-6.269,-6.3135,-6.3143,-6.315,0,0,0,0,0,0,-6.2279,-6.2306,-6.2521,-6.2418,-6.2443,-6.2459,-6.2524,-6.2523,-6.256,-6.2584,-6.2586,-6.2546,-6.2614,-6.2633,-6.2769,-6.2859,-6.2688,-6.2697,-6.3128,-6.3138,-6.3146,-6.3275,0,0,0,0,0,0,-6.2271,-6.2304,-6.2372,-6.242,-6.2449,-6.2643,-6.2529,-6.2529,-6.2578,-6.2567,-6.2619,-6.2622,-6.2611,-6.2755,-6.2779,-6.2869,-6.2705,-6.312,-6.3132,-6.3143,-6.3263,-6.3288,-6.3309,0,0,0,0,0,-6.2261,-6.2402,-6.2376,-6.2403,-6.2534,-6.2648,-6.2665,-6.2651,-6.2586,-6.2653,-6.2669,-6.262,-6.2845,-6.277,-6.2796,-6.2891,-6.3114,-6.3129,-6.3142,-6.3252,-6.3283,-6.3308,0,0,0,0,0,0,-6.2362,-6.2408,-6.2379,-6.254,-6.2591,-6.2633,-6.2718,-6.2683,-6.2752,-6.2739,-6.2717,-6.273,-6.2873,-6.2895,-6.281,-6.3063,-6.2969,-6.2989,-6.3044,-6.3073,-6.3095,-6.3087,-6.2713,0,0,0,0,0,-6.2403,-6.2494,-6.2528,-6.2667,-6.2694,-6.2702,-6.2751,-6.2736,-6.2787,-6.2808,-6.2833,-6.2884,-6.2965,-6.302,-6.3096,-6.3265,-6.3275,-6.3343,-6.3366,-6.3385,-6.3403,-6.3494,-6.3525,-6.3196,-6.3196,-6.3196,0,0,-6.2489,-6.2525,-6.2583,-6.2688,-6.2726,-6.2819,-6.2721,-6.2823,-6.2891,-6.2823,-6.2954,-6.2974,-6.3029,-6.3182,-6.3251,-6.3205,-6.3496,-6.3403,-6.3418,-6.3425,-6.3512,-6.3543,-6.3571,-6.3206,-6.3204,-6.3202,0,0,-6.2694,-6.273,-6.2851,-6.2891,-6.295,-6.2955,-6.2984,-6.3031,-6.3043,-6.3174,-6.3125,-6.3205,-6.3347,-6.3388,-6.3428,-6.3649,-6.3607,-6.3674,-6.3795,-6.3885,-6.3911,-6.3934,-6.4014,-6.4043,-6.3692,-6.3692,-6.3692,0,-6.2793,-6.2933,-6.2917,-6.3024,-6.3071,-6.3016,-6.3137,-6.3176,-6.3257,-6.329,-6.3237,-6.3415,-6.3447,-6.3611,-6.3665,-6.3698,-6.3731,-6.3669,-6.3909,-6.3931,-6.3953,-6.4029,-6.4059,-6.37,-6.3699,-6.3698,-6.3698,0,-6.3052,-6.315,-6.324,-6.3322,-6.3379,-6.3493,-6.3493,-6.3553,-6.3533,-6.3543,-6.3677,-6.3715,-6.3798,-6.3836,-6.3816,-6.3997,-6.3966,-6.3912,-6.3817,-6.3992,-6.4064,-6.4092,-6.3711,-6.3709,-6.3706,-6.3704,0,0,-6.3324,-6.3397,-6.343,-6.3467,-6.3529,-6.3603,-6.3714,-6.3798,-6.385,-6.3907,-6.3999,-6.4121,-6.4071,-6.4116,-6.4101,-6.418,-6.4354,-6.4115,-6.4116,-6.4159,-6.4556,-6.4598,-6.4632,-6.4326,-6.4332,-6.4336,-6.4552,0,-6.3533,-6.3729,-6.3718,-6.3901,-6.3991,-6.394,-6.4036,-6.4083,-6.4095,-6.4173,-6.4184,-6.4272,-6.4199,-6.4226,-6.4301,-6.4317,-6.4434,-6.4301,-6.4412,-6.4416,-6.4402,-6.4669,-6.4714,-6.4916,-6.458,-6.4584,-6.4588,0,-6.3803,-6.3873,-6.4066,-6.4115,-6.4152,-6.4239,-6.4316,-6.439,-6.4443,-6.4446,-6.4497,-6.4469,-6.458,-6.4483,-6.4635,-6.4545,-6.4589,-6.4604,-6.4611,-6.4622,-6.4514,-6.4689,-6.498,-6.5011,-6.4631,-6.4628,-6.4625,0,-6.3985,-6.4125,-6.4259,-6.4292,-6.4352,-6.4415,-6.4443,-6.449,-6.4542,-6.4608,-6.4641,-6.4718,-6.4761,-6.4821,-6.4814,-6.4744,-6.497,-6.4871,-6.4976,-6.4976,-6.5027,-6.5024,-6.5331,-6.5053,-6.5053,-6.5052,-6.5051,0,-6.422,-6.434,-6.4342,-6.4425,-6.4558,-6.4543,-6.4675,-6.4695,-6.4738,-6.4823,-6.4781,-6.4861,-6.4847,-6.4927,-6.4922,-6.505,-6.5069,-6.5074,-6.5072,-6.5079,-6.5079,-6.5109,-6.5095,-6.506,-6.5058,-6.5057,-6.5055,0,-6.4445,-6.4451,-6.4594,-6.464,-6.4654,-6.4751,-6.4789,-6.4867,-6.4875,-6.4983,-6.5008,-6.5021,-6.5113,-6.5112,-6.5216,-6.5213,-6.537,-6.535,-6.5353,-6.535,-6.5455,-6.5446,-6.5793,-6.5838,-6.553,-6.5533,-6.5535,0,-6.4596,-6.4688,-6.4744,-6.4799,-6.4832,-6.492,-6.4973,-6.4962,-6.5019,-6.5086,-6.5156,-6.5244,-6.5315,-6.5464,-6.5482,-6.5561,-6.5544,-6.566,-6.5556,-6.5561,-6.5548,-6.5543,-6.5553,-6.5681,-6.5685,-6.5687,-6.569,0,-6.4863,-6.4862,-6.4941,-6.5022,-6.5087,-6.515,-6.5207,-6.5254,-6.5249,-6.5314,-6.5409,-6.5464,-6.5572,-6.566,-6.5737,-6.5763,-6.5727,-6.5723,-6.5751,-6.576,-6.5759,-6.5763,-6.5411,-6.5715,-6.5712,-6.571,-6.5709,-6.5708,-6.5056,-6.5136,-6.5189,-6.5279,-6.5322,-6.5377,-6.5453,-6.5472,-6.5551,-6.564,-6.5627,-6.5733,-6.5783,-6.5883,-6.5917,-6.5998,-6.5958,-6.5999,-6.6009,-6.602,-6.6033,-6.5745,-6.6012,-6.6011,-6.6011,-6.601,-6.6009,0,-6.5323,-6.5355,-6.5437,-6.5521,-6.5592,-6.5552,-6.5613,-6.5675,-6.577,-6.582,-6.5891,-6.6,-6.6086,-6.6111,-6.6194,-6.6255,-6.624,-6.6277,-6.6273,-6.628,-6.6064,-6.6031,-6.6288,-6.6288,-6.6288,-6.6288,-6.6288,-6.6287,-6.547,-6.5604,-6.5609,-6.5763,-6.5793,-6.5898,-6.5937,-6.5988,-6.6028,-6.6153,-6.6225,-6.6242,-6.6282,-6.6368,-6.6444,-6.6449,-6.6482,-6.6527,-6.6525,-6.6323,-6.6295,-6.6268,-6.6238,-6.6534,-6.6534,-6.6735,-6.6737,-6.6738]}]]